Photometre #859[NE_1.6] Durban_UKZN AOT

File : 20220928_859.hum

28/09/2022,04:21:36,TEMP=20.5,BA=5.40,STAT.A=12.5,ExtBa=12.75
28/09/2022,04:24:32,TEMP=20.8,BA=5.40,STAT.A=12.5,ExtBa=12.67
28/09/2022,04:27:58,TEMP=20.8,BA=5.40,STAT.A=12.5,ExtBa=12.64
28/09/2022,04:32:03,TEMP=20.8,BA=5.40,STAT.A=12.5,ExtBa=12.64
28/09/2022,04:36:57,TEMP=20.8,BA=5.40,STAT.A=12.5,ExtBa=12.64
28/09/2022,04:42:59,TEMP=20.8,BA=5.40,STAT.A=12.5,ExtBa=12.65
28/09/2022,04:50:35,TEMP=20.7,BA=5.40,STAT.B=12.5,ExtBa=12.66
28/09/2022,04:54:12,TEMP=20.8,BA=5.40,STAT.A=12.5,ExtBa=12.63
28/09/2022,04:58:15,TEMP=20.8,BA=5.40,STAT.A=12.5,ExtBa=12.63
28/09/2022,05:02:48,TEMP=20.9,BA=5.40,STAT.A=12.5,ExtBa=12.63
28/09/2022,05:07:57,TEMP=20.9,BA=5.40,STAT.A=12.5,ExtBa=12.64
28/09/2022,05:13:50,TEMP=20.9,BA=5.40,STAT.C=12.5,ExtBa=12.64
28/09/2022,05:20:39,TEMP=20.9,BA=5.40,STAT.A=12.5,ExtBa=12.65
28/09/2022,05:28:37,TEMP=21.0,BA=5.40,STAT.A=12.5,ExtBa=12.65
28/09/2022,05:38:04,TEMP=21.1,BA=5.36,STAT.A=12.5,ExtBa=12.66
28/09/2022,05:49:32,TEMP=21.2,BA=5.40,STAT.A=12.5,ExtBa=12.66
28/09/2022,06:00:22,TEMP=21.4,BA=5.40,STAT.D=12.5,ExtBa=12.66
28/09/2022,06:03:45,TEMP=21.6,BA=5.40,STAT.B=12.5,ExtBa=12.62
28/09/2022,06:15:22,TEMP=21.7,BA=5.40,STAT.D=12.5,ExtBa=12.66
28/09/2022,06:27:22,TEMP=21.9,BA=5.44,STAT.D=12.5,ExtBa=12.67
28/09/2022,06:33:16,TEMP=22.1,BA=5.44,STAT.B=12.5,ExtBa=12.64
28/09/2022,06:45:22,TEMP=22.3,BA=5.44,STAT.D=13.0,ExtBa=12.69
28/09/2022,06:47:34,TEMP=22.8,BA=5.44,STAT.F,ExtBa=12.58
28/09/2022,07:04:11,TEMP=23.2,BA=5.44,STAT.D=13.0,ExtBa=12.76
28/09/2022,07:15:23,TEMP=23.5,BA=5.48,STAT.D=13.0,ExtBa=12.73
28/09/2022,07:17:33,TEMP=23.8,BA=5.48,STAT.D=12.5,ExtBa=12.64
28/09/2022,07:30:23,TEMP=23.5,BA=5.48,STAT.D=13.0,ExtBa=12.78
28/09/2022,07:32:33,TEMP=23.9,BA=5.48,STAT.D=12.5,ExtBa=12.71
28/09/2022,07:45:23,TEMP=24.1,BA=5.48,STAT.D=13.0,ExtBa=12.78
28/09/2022,07:47:34,TEMP=24.5,BA=5.48,STAT.F,ExtBa=12.66
28/09/2022,08:00:23,TEMP=24.6,BA=5.52,STAT.D=13.0,ExtBa=12.87
28/09/2022,08:02:33,TEMP=24.9,BA=5.52,STAT.D=12.5,ExtBa=12.74
28/09/2022,08:15:23,TEMP=24.3,BA=5.52,STAT.D=13.0,ExtBa=12.89
28/09/2022,08:17:33,TEMP=24.6,BA=5.52,STAT.D=12.5,ExtBa=12.76
28/09/2022,08:30:23,TEMP=24.3,BA=5.52,STAT.D=13.0,ExtBa=12.97
28/09/2022,08:32:33,TEMP=24.7,BA=5.52,STAT.D=12.5,ExtBa=12.79
28/09/2022,08:36:23,TEMP=24.7,BA=5.52,STAT.D=12.5,ExtBa=12.71
28/09/2022,08:47:35,TEMP=24.2,BA=5.52,STAT.F,ExtBa=12.75
28/09/2022,09:00:24,TEMP=24.4,BA=5.52,STAT.D=13.0,ExtBa=13.12
28/09/2022,09:02:34,TEMP=24.9,BA=5.52,STAT.D=12.5,ExtBa=13.12
28/09/2022,09:15:24,TEMP=24.9,BA=5.56,STAT.D=13.0,ExtBa=13.03
28/09/2022,09:17:34,TEMP=25.3,BA=5.56,STAT.D=12.5,ExtBa=13.00
28/09/2022,09:30:24,TEMP=25.2,BA=5.56,STAT.D=13.0,ExtBa=12.94
28/09/2022,09:32:34,TEMP=25.4,BA=5.56,STAT.D=12.5,ExtBa=12.89
28/09/2022,09:45:24,TEMP=25.4,BA=5.56,STAT.D=13.0,ExtBa=13.18
28/09/2022,09:47:41,TEMP=25.8,BA=5.56,STAT.F,ExtBa=12.98
28/09/2022,10:00:24,TEMP=25.7,BA=5.56,STAT.D=13.0,ExtBa=13.12
28/09/2022,10:02:34,TEMP=26.0,BA=5.56,STAT.D=12.5,ExtBa=13.01
28/09/2022,10:15:24,TEMP=25.4,BA=5.56,STAT.D=13.0,ExtBa=13.10
28/09/2022,10:17:34,TEMP=25.7,BA=5.56,STAT.D=13.0,ExtBa=13.07
28/09/2022,10:30:24,TEMP=26.2,BA=5.60,STAT.D=13.0,ExtBa=13.34
28/09/2022,10:32:34,TEMP=26.6,BA=5.60,STAT.D=12.5,ExtBa=13.25
28/09/2022,10:36:24,TEMP=26.6,BA=5.60,STAT.D=13.0,ExtBa=13.27
28/09/2022,10:39:23,TEMP=26.7,BA=5.60,STAT.D=13.0,ExtBa=13.41
28/09/2022,10:42:23,TEMP=26.9,BA=5.56,STAT.D=12.5,ExtBa=13.32
28/09/2022,10:45:23,TEMP=27.0,BA=5.56,STAT.D=13.0,ExtBa=13.22
28/09/2022,10:48:16,TEMP=27.1,BA=5.56,STAT.F,ExtBa=12.96
28/09/2022,11:00:23,TEMP=26.0,BA=5.60,STAT.D=13.0,ExtBa=13.17
28/09/2022,11:02:33,TEMP=26.3,BA=5.60,STAT.D=13.0,ExtBa=13.11
28/09/2022,11:06:23,TEMP=26.3,BA=5.60,STAT.D=13.0,ExtBa=12.96
28/09/2022,11:17:33,TEMP=25.7,BA=5.56,STAT.D=13.0,ExtBa=12.92
28/09/2022,11:30:23,TEMP=25.0,BA=5.60,STAT.D=13.0,ExtBa=12.90
28/09/2022,11:32:33,TEMP=25.3,BA=5.60,STAT.D=13.0,ExtBa=12.86
28/09/2022,11:45:23,TEMP=25.0,BA=5.60,STAT.D=13.0,ExtBa=12.88
28/09/2022,11:47:35,TEMP=25.3,BA=5.60,STAT.F,ExtBa=12.80
28/09/2022,12:00:23,TEMP=24.9,BA=5.60,STAT.D=13.0,ExtBa=12.93
28/09/2022,12:02:33,TEMP=25.2,BA=5.60,STAT.D=12.5,ExtBa=12.86
28/09/2022,12:15:23,TEMP=24.7,BA=5.60,STAT.D=13.0,ExtBa=12.89
28/09/2022,12:17:33,TEMP=25.0,BA=5.60,STAT.D=12.5,ExtBa=12.82
28/09/2022,12:42:22,TEMP=24.3,BA=5.56,STAT.D=13.0,ExtBa=12.85
28/09/2022,12:47:34,TEMP=24.7,BA=5.56,STAT.F,ExtBa=12.88
28/09/2022,13:00:22,TEMP=24.6,BA=5.60,STAT.D=13.0,ExtBa=12.81
28/09/2022,13:02:20,TEMP=24.9,BA=5.60,STAT.B=12.5,ExtBa=12.73
28/09/2022,13:15:22,TEMP=24.0,BA=5.60,STAT.D=13.0,ExtBa=12.77
28/09/2022,13:27:22,TEMP=24.0,BA=5.60,STAT.D=13.0,ExtBa=12.76
28/09/2022,13:31:23,TEMP=24.0,BA=5.60,STAT.B=13.0,ExtBa=12.72
28/09/2022,13:42:22,TEMP=23.8,BA=5.60,STAT.D=13.0,ExtBa=12.74
28/09/2022,13:45:34,TEMP=24.0,BA=5.60,STAT.A=12.5,ExtBa=12.70
28/09/2022,13:57:02,TEMP=23.7,BA=5.60,STAT.A=13.0,ExtBa=12.72
28/09/2022,14:06:29,TEMP=23.5,BA=5.60,STAT.A=13.0,ExtBa=12.71
28/09/2022,14:14:27,TEMP=23.3,BA=5.56,STAT.A=13.0,ExtBa=12.71
28/09/2022,14:21:16,TEMP=23.2,BA=5.56,STAT.C=13.0,ExtBa=12.70
28/09/2022,14:27:09,TEMP=23.1,BA=5.56,STAT.A=13.0,ExtBa=12.68
28/09/2022,14:32:18,TEMP=23.0,BA=5.56,STAT.A=13.0,ExtBa=12.67
28/09/2022,14:36:51,TEMP=23.0,BA=5.56,STAT.A=13.0,ExtBa=12.67
28/09/2022,14:40:54,TEMP=23.0,BA=5.56,STAT.A=13.0,ExtBa=12.66
28/09/2022,14:44:31,TEMP=23.0,BA=5.56,STAT.B=12.5,ExtBa=12.65
28/09/2022,14:52:07,TEMP=22.8,BA=5.56,STAT.A=13.0,ExtBa=12.68
28/09/2022,15:05:42,TEMP=22.6,BA=5.52,STAT.A=13.0,ExtBa=12.70
28/09/2022,15:07:37,TEMP=22.9,BA=5.52,STAT.A=12.5,ExtBa=12.63
28/09/2022,15:09:32,TEMP=23.1,BA=5.52,STAT.A=12.5,ExtBa=12.61
28/09/2022,15:11:27,TEMP=23.1,BA=5.48,STAT.A=12.5,ExtBa=12.61
28/09/2022,15:13:30,TEMP=23.1,BA=5.48,STAT.A=12.5,ExtBa=12.61